TimeCDT,TemperatureF,Dew PointF,Humidity,Sea Level PressureIn,VisibilityMPH,Wind Direction,Wind SpeedMPH,Gust SpeedMPH,PrecipitationIn,Events,Conditions,WindDirDegrees,DateUTC
12:02 AM,39.2,37.4,93,30.16,10.0,NNE,6.9,-,N/A,,Overcast,20,2013-05-05 05:02:00
12:21 AM,39.2,37.4,93,30.16,10.0,NNE,8.1,-,N/A,,Overcast,20,2013-05-05 05:21:00
12:42 AM,39.2,37.4,93,30.16,10.0,North,5.8,-,N/A,,Overcast,10,2013-05-05 05:42:00
1:02 AM,39.2,35.6,87,30.15,10.0,North,9.2,-,N/A,,Overcast,10,2013-05-05 06:02:00
1:21 AM,39.2,35.6,87,30.15,10.0,North,5.8,-,N/A,,Mostly Cloudy,360,2013-05-05 06:21:00
1:42 AM,39.2,35.6,87,30.14,10.0,North,5.8,-,N/A,,Scattered Clouds,360,2013-05-05 06:42:00
2:01 AM,37.4,35.6,93,30.13,10.0,North,5.8,-,N/A,,Clear,360,2013-05-05 07:01:00
2:22 AM,37.4,35.6,93,30.13,10.0,North,5.8,-,N/A,,Clear,360,2013-05-05 07:22:00
2:42 AM,37.4,35.6,93,30.12,10.0,NNW,6.9,-,N/A,,Scattered Clouds,340,2013-05-05 07:42:00
3:01 AM,37.4,35.6,93,30.13,10.0,North,4.6,-,N/A,,Scattered Clouds,360,2013-05-05 08:01:00
3:22 AM,37.4,35.6,93,30.13,10.0,North,6.9,-,N/A,,Mostly Cloudy,350,2013-05-05 08:22:00
3:41 AM,37.4,35.6,93,30.14,10.0,North,5.8,-,N/A,,Scattered Clouds,350,2013-05-05 08:41:00
4:02 AM,37.4,35.6,93,30.14,10.0,North,5.8,-,N/A,,Clear,350,2013-05-05 09:02:00
4:21 AM,37.4,35.6,93,30.14,10.0,NNW,5.8,-,N/A,,Clear,340,2013-05-05 09:21:00
4:41 AM,37.4,35.6,93,30.14,10.0,NNW,5.8,-,N/A,,Clear,340,2013-05-05 09:41:00
5:02 AM,37.4,35.6,93,30.14,10.0,North,5.8,-,N/A,,Clear,350,2013-05-05 10:02:00
5:21 AM,37.4,35.6,93,30.14,10.0,NNW,5.8,-,N/A,,Scattered Clouds,340,2013-05-05 10:21:00
5:42 AM,37.4,35.6,93,30.15,10.0,NNW,5.8,-,N/A,,Mostly Cloudy,340,2013-05-05 10:42:00
6:01 AM,37.4,35.6,93,30.15,10.0,NNW,6.9,-,N/A,,Mostly Cloudy,340,2013-05-05 11:01:00
6:22 AM,37.4,35.6,93,30.15,10.0,North,8.1,-,N/A,,Scattered Clouds,350,2013-05-05 11:22:00
6:41 AM,37.4,35.6,93,30.15,10.0,North,5.8,-,N/A,,Clear,350,2013-05-05 11:41:00
7:02 AM,37.4,35.6,93,30.15,10.0,North,6.9,-,N/A,,Scattered Clouds,360,2013-05-05 12:02:00
7:21 AM,39.2,35.6,87,30.16,10.0,NNE,8.1,-,N/A,,Mostly Cloudy,20,2013-05-05 12:21:00
7:41 AM,39.2,35.6,87,30.16,10.0,North,5.8,-,N/A,,Mostly Cloudy,10,2013-05-05 12:41:00
8:02 AM,39.2,35.6,87,30.16,10.0,North,5.8,-,N/A,,Overcast,10,2013-05-05 13:02:00
8:21 AM,39.2,35.6,87,30.16,10.0,North,4.6,-,N/A,,Mostly Cloudy,360,2013-05-05 13:21:00
8:41 AM,39.2,35.6,87,30.16,10.0,North,5.8,-,N/A,,Mostly Cloudy,350,2013-05-05 13:41:00
9:01 AM,41.0,35.6,81,30.16,10.0,NNE,5.8,-,N/A,,Overcast,20,2013-05-05 14:01:00
9:21 AM,42.8,37.4,81,30.16,10.0,North,6.9,-,N/A,,Overcast,360,2013-05-05 14:21:00
9:42 AM,44.6,37.4,76,30.15,10.0,North,6.9,-,N/A,,Scattered Clouds,350,2013-05-05 14:42:00
10:01 AM,44.6,37.4,76,30.16,10.0,North,5.8,-,N/A,,Clear,10,2013-05-05 15:01:00
10:22 AM,44.6,37.4,76,30.15,10.0,NNE,3.5,-,N/A,,Clear,30,2013-05-05 15:22:00
10:46 AM,46.4,39.2,76,30.15,10.0,North,3.5,-,N/A,,Scattered Clouds,360,2013-05-05 15:46:00
11:02 AM,46.4,39.2,76,30.15,10.0,NNE,3.5,-,N/A,,Scattered Clouds,20,2013-05-05 16:02:00
11:21 AM,48.2,39.2,71,30.15,10.0,NNW,3.5,-,N/A,,Clear,340,2013-05-05 16:21:00
11:42 AM,48.2,39.2,71,30.15,10.0,Calm,Calm,-,N/A,,Clear,0,2013-05-05 16:42:00
12:01 PM,50.0,39.2,66,30.15,10.0,North,5.8,-,N/A,,Clear,360,2013-05-05 17:01:00
12:21 PM,51.8,41.0,67,30.14,10.0,NNE,3.5,-,N/A,,Clear,30,2013-05-05 17:21:00
1:01 PM,53.6,42.8,67,30.13,10.0,NNE,5.8,-,N/A,,Clear,30,2013-05-05 18:01:00
1:22 PM,55.4,42.8,63,30.12,10.0,NNE,4.6,-,N/A,,Clear,20,2013-05-05 18:22:00
1:41 PM,55.4,44.6,67,30.12,10.0,North,5.8,-,N/A,,Clear,350,2013-05-05 18:41:00
2:01 PM,57.2,44.6,63,30.12,10.0,Calm,Calm,-,N/A,,Clear,0,2013-05-05 19:01:00
2:22 PM,57.2,44.6,63,30.11,10.0,NNE,4.6,-,N/A,,Clear,30,2013-05-05 19:22:00
2:41 PM,59.0,44.6,59,30.10,10.0,Calm,Calm,-,N/A,,Clear,0,2013-05-05 19:41:00
3:21 PM,60.8,44.6,55,30.09,10.0,North,5.8,-,N/A,,Clear,360,2013-05-05 20:21:00
3:41 PM,62.6,46.4,55,30.09,10.0,NNE,4.6,-,N/A,,Clear,30,2013-05-05 20:41:00
4:02 PM,62.6,46.4,55,30.08,10.0,NNE,4.6,-,N/A,,Clear,20,2013-05-05 21:02:00
4:21 PM,62.6,46.4,55,30.08,10.0,NW,4.6,-,N/A,,Clear,320,2013-05-05 21:21:00
4:41 PM,62.6,44.6,52,30.07,10.0,North,4.6,-,N/A,,Clear,350,2013-05-05 21:41:00
5:02 PM,62.6,44.6,52,30.07,10.0,North,5.8,-,N/A,,Clear,10,2013-05-05 22:02:00
5:21 PM,64.4,46.4,52,30.07,10.0,North,5.8,-,N/A,,Clear,350,2013-05-05 22:21:00
5:41 PM,62.6,46.4,55,30.07,10.0,North,6.9,-,N/A,,Clear,360,2013-05-05 22:41:00
6:02 PM,62.6,46.4,55,30.07,10.0,North,5.8,-,N/A,,Clear,10,2013-05-05 23:02:00
6:21 PM,62.6,46.4,55,30.07,10.0,NNW,8.1,-,N/A,,Clear,340,2013-05-05 23:21:00
6:41 PM,62.6,46.4,55,30.07,10.0,North,5.8,-,N/A,,Clear,10,2013-05-05 23:41:00
7:02 PM,62.6,46.4,55,30.07,10.0,North,8.1,-,N/A,,Clear,350,2013-05-06 00:02:00
7:21 PM,62.6,46.4,55,30.07,10.0,North,3.5,-,N/A,,Clear,10,2013-05-06 00:21:00
7:42 PM,60.8,46.4,59,30.08,10.0,NNE,4.6,-,N/A,,Clear,20,2013-05-06 00:42:00
8:01 PM,59.0,46.4,63,30.08,10.0,NNE,3.5,-,N/A,,Clear,20,2013-05-06 01:01:00
8:21 PM,57.2,46.4,67,30.08,10.0,Calm,Calm,-,N/A,,Clear,0,2013-05-06 01:21:00
8:42 PM,55.4,46.4,72,30.08,10.0,Calm,Calm,-,N/A,,Clear,0,2013-05-06 01:42:00
9:21 PM,51.8,44.6,76,30.08,10.0,Calm,Calm,-,N/A,,Clear,0,2013-05-06 02:21:00
9:42 PM,50.0,46.4,87,30.08,10.0,Calm,Calm,-,N/A,,Clear,0,2013-05-06 02:42:00
10:01 PM,48.2,44.6,87,30.08,10.0,Calm,Calm,-,N/A,,Clear,0,2013-05-06 03:01:00
10:21 PM,48.2,46.4,93,30.08,10.0,Calm,Calm,-,N/A,,Clear,0,2013-05-06 03:21:00
10:42 PM,46.4,44.6,93,30.08,10.0,Calm,Calm,-,N/A,,Clear,0,2013-05-06 03:42:00
11:01 PM,46.4,44.6,93,30.08,10.0,West,3.5,-,N/A,,Clear,280,2013-05-06 04:01:00
11:21 PM,46.4,44.6,93,30.08,10.0,West,3.5,-,N/A,,Clear,270,2013-05-06 04:21:00
11:42 PM,44.6,42.8,93,30.08,10.0,West,3.5,-,N/A,,Clear,280,2013-05-06 04:42:00